User: anonymous
Location: French Creek State Gamelands
(40.1750°N, 75.7969°W)
Time: 14:03:43
(UTC-04:00)
Language:

ISS - Orbit

View from above orbital plane
View from above orbital plane
View from above satellite
View from above satellite

Ground track
Ground track

The orbit data is extracted from the following two-line orbital elements,

1 25544U 98067A   14241.57731319  .00016132  00000-0  28905-3 0  9886
2 25544 051.6445 095.8259 0003779 059.4620 337.7372 15.50097991902714
Epoch (UTC): 29 August 2014 13:51:19
Eccentricity: 0.0003779
inclination: 51.6445°
perigee height: 414 km
apogee height: 419 km
right ascension of ascending node: 95.8259°
argument of perigee: 59.4620°
revolutions per day: 15.50097991
mean anomaly at epoch: 337.7372°
orbit number at epoch: 90271

The dashed part of the orbit path shows where the satellite is in the earth's shadow,  

DLR